Location: Apeadero de Los Molinos-Guadarrama
(40.7091°N, 4.0689°W)
Time: 13:00:44
(UTC+00:00)

Cosmos 1937 Rocket - Pass Details

Date: 14 May 2021
Orbit: 746 x 781 km, 74.0° (Epoch: 18 June)

Event Time Altitude Azimuth Distance (km) Brightness Sun altitude
Exits shadow 21:54:23 50° 110° (ESE) 945 3.6 -22.3°
Maximum altitude 21:54:32 51° 104° (ESE) 943 3.6 -22.3°
Drops below altitude 10° 21:59:31 10° 30° (NNE) 2,282 6.3 -22.9°
Sets 22:01:57 0° 25° (NNE) 3,216 7.2 -23.1°
